Weather in Beppu

Japan     33°16′47″N   131°29′45″E
temp.,
°C
wind,
m/s
gust,
m/s
humid.,
%
clouds,
%
prec.,
mm/h
press.,
hPa
HPBL,
m
26 february, fri
fri2600:00+8ene3697100 2.6 1020429
03:00+7ne3898100 5.1 1017537
06:00+8ene2499100 7.9 1017256
09:00+6ne41098100 16.4 1017654
12:00+5nne41197100 8.3 1018754
15:00+4n3999100 21.1 1016524
18:00+6nne31098100 12.8 1018733
21:00+5n31193100 15.1 1019857
27 february, sat
sat2700:00+5nne3991100 0.3 1021859
03:00+4n3891100 0.6 1022819
06:00+2nnw3788100 0.0 1024431
09:00+4nne4878100 0.0 1026970
12:00+7ne4767100 0.0 1026981
15:00+7ne4860100 0.0 1025903
18:00+5n126999 0.0 1026123
21:00+4wnw227399 0.0 102859
28 february, sun
sun2800:00+4w1176100 0.0 102930
03:00+4sw1178100 0.0 102932
06:00+6ene1283100 0.0 1029114
09:00+8e2379100 0.1 1029400
12:00+9sse378397 0.1 1028525
15:00+11se398298 0.3 10271088
18:00+10sse3118897 0.4 1027663
21:00+9se269382 0.6 1028343
1 march, mon
mon100:00+10se2695100 0.2 1026377
03:00+10se1498100 1.2 1025177
06:00+10e2599100 1.3 1024233
09:00+10ene1399100 2.4 1025196
12:00+12se31095100 0.6 1022637
15:00+13se31095100 0.8 1020709
18:00+12sse21198100 0.2 1018631
21:00+13se21199100 1.4 1017601
2 march, tue
tue200:00+13se2999100 0.5 1013458
03:00+13ssw229699 0.8 101057
06:00+13sw229379 0.0 100848
09:00+15w139290 0.3 1011158
12:00+8nw51091100 2.3 1013794
15:00+6nnw51187100 2.7 1016995
18:00+5nnw6128499 0.1 10201254
21:00+4nnw5108199 0.2 10231218